Flag for U.S.A. Weather past 2 weeks in Fort Wayne, Indiana, U.S.A.

Now
41 °F

Partly cloudy.


Feels Like: 32 °F
Forecast: 38 / 48 °F
Wind: 17 mph from East

Location: Fort Wayne International Airport

Current Time: Apr 25, 2015 at 7:17:37 AM

Latest Report: Apr 25, 2015 at 6:54 AM


Visibility: 10 mi

Pressure: 29.85 "Hg

Humidity: 80%

Dew point: 35 °F

Location of Fort WayneLocation

Historic Weather in Fort Wayne — Graph

°F

Fort Wayne temperature yesterday

Maximum temperature yesterday: 59 °F (at 3:54 PM)
Minimum temperature yesterday: 29 °F (at 4:54 AM)
Average temperature yesterday: 46 °F

Past Weeks' High & Low Weather Summary

 TemperatureHumidityPressure
High78 °F (Apr 18, 2:54 PM)97% (Apr 16, 11:54 PM)30.31 "Hg (Apr 16, 11:54 PM)
Low29 °F (Apr 24, 4:54 AM)23% (Apr 24, 5:54 PM)29.28 "Hg (Apr 20, 12:54 AM)
Average52 °F61%29.98 "Hg
* Reported Apr 10 5:54 AM — Apr 25 5:54 AM, Fort Wayne, Weather by CustomWeather, © 2015

Note: Actual official high and low records may vary slightly from our data, if they occured in-between our weather recording intervals... More about our weather records

Advertising

Fort Wayne weather history for previous 24 hours

 ConditionsComfort  
Time TempWeatherWind HumidityBarometerVisibility
5:54 AM
Sat, Apr 25
43 °FOvercast.24 mph71%29.85 "Hg10 mi
4:54 AM45 °FOvercast.18 mph74%29.87 "Hg10 mi
3:54 AM48 °FOvercast.17 mph59%29.89 "Hg10 mi
2:54 AM49 °FOvercast.15 mph55%29.92 "Hg10 mi
1:54 AM50 °FOvercast.12 mph52%29.93 "Hg10 mi
12:54 AM51 °FOvercast.13 mph48%29.94 "Hg10 mi
11:54 PM
Fri, Apr 24
51 °FOvercast.7 mph50%29.92 "Hg10 mi
10:54 PM51 °FOvercast.5 mph54%29.94 "Hg10 mi
9:54 PM52 °FMostly cloudy.5 mph50%29.95 "Hg10 mi
8:54 PM54 °FMore clouds than sun.3 mph35%29.95 "Hg10 mi
6:54 PM59 °FPartly sunny.5 mph25%29.97 "Hg10 mi
5:54 PM59 °FBroken clouds.No wind23%29.98 "Hg10 mi
4:54 PM59 °FPartly sunny.5 mph25%30.00 "Hg10 mi
3:54 PM59 °FBroken clouds.7 mph26%30.02 "Hg10 mi
2:54 PM58 °FScattered clouds.5 mph25%30.05 "Hg10 mi
1:54 PM57 °FScattered clouds.8 mph25%30.07 "Hg10 mi
12:54 PM56 °FPassing clouds.9 mph26%30.10 "Hg10 mi
11:54 AM54 °FPassing clouds.3 mph25%30.11 "Hg10 mi
10:54 AM51 °FPassing clouds.9 mph39%30.13 "Hg10 mi
9:54 AM47 °FSunny.12 mph44%30.12 "Hg10 mi
8:54 AM41 °FSunny.9 mph62%30.13 "Hg10 mi
7:54 AM33 °FPassing clouds.6 mph75%30.13 "Hg10 mi
Weather by CustomWeather, © 2015

See weather overviewHow to use our weather pages